686  
ASUS41 KGYX 150410  
RWRGYX  
WEATHER ROUNDUP FOR MAINE AND NEW HAMPSHIRE  
NATIONAL WEATHER SERVICE GRAY ME  
1200 AM EDT WED AUG 15 2018  
 
MEZ002-005-006-010-012-015-018-020-021-024-026-027-029-150500-  
MAINE  
 
CITY SKY/WX TMP DP RH WIND PRES REMARKS
 
PORTLAND CLOUDY 70 69 97 CALM 29.84F  
SANFORD CLOUDY 69 69 100 CALM 29.85S FOG  
BAR HARBOR CLOUDY 68 67 96 CALM 29.88R  
WISCASSET FOG 70 70 100 CALM 29.86S VSB 1/2  
ROCKLAND FOG 66 66 100 CALM 29.85F VSB 1/2  
FRYEBURG MOCLDY 68 68 100 CALM 29.86S  
LEWISTONAUBURN CLOUDY 69 68 96 CALM 29.86S  
AUGUSTA LGT RAIN 69 68 96 S3 29.86S  
BANGOR FOG 70 69 97 S6 29.86F VSB 3/4  
GREENVILLE N/A 68 67 96 CALM 29.85F  
MILLINOCKET CLOUDY 71 67 87 VRB3 29.85F  
HOULTON MOCLDY 71 70 96 S8 29.82S  
PRESQUE ISLE CLOUDY 73 69 87 S5 29.82S  
FRENCHVILLE CLOUDY 73 67 81 VRB3 29.80S  
CARIBOU CLOUDY 73 68 84 S5 29.80F  

 
 
NHZ002-005-008-009-011-012-014-150500-  
NEW HAMPSHIRE  
 
CITY SKY/WX TMP DP RH WIND PRES REMARKS
 
PORTSMOUTH CLOUDY 70 69 98 W3 29.82F FOG  
ROCHESTER CLOUDY 69 69 100 CALM 29.84S FOG  
MANCHESTER NOT AVBL  
CONCORD CLOUDY 70 69 97 CALM 29.84F  
LACONIA FAIR 67 66 97 CALM 29.86S  
PLYMOUTH MOCLDY 65 64 96 CALM 29.86S FOG  
BERLIN FAIR 65 64 97 CALM 29.86S  
WHITEFIELD FAIR 65 64 97 CALM 29.86S  
JAFFREY NOT AVBL  
LEBANON FAIR 67 64 90 CALM 29.83F  
MT WASHINGTON MOCLDY 54 48 82 SW10 N/A  

 
 
VTZ005-007-008-150500-  
VERMONT  
 
CITY SKY/WX TMP DP RH WIND PRES REMARKS
 
ST JOHNSBURY N/A 68 67 96 MISG 29.82S  
MONTPELIER FAIR 68 67 96 CALM 29.88S  
BURLINGTON FAIR 72 65 78 S5 29.81R  

 
 
MAZ007-012-024-CTZ003-RIZ002-NYZ038-NYZ072-150500-  
SOUTHERN NEW ENGLAND AND NY  
 
CITY SKY/WX TMP DP RH WIND PRES REMARKS
 
BOSTON FAIR 73 69 87 SW9 29.83F  
WORCESTER CLOUDY 68 68 100 S7 29.87S FOG  
NANTUCKET FAIR 72 70 93 S10 29.87F  
PROVIDENCE FAIR 72 70 93 S3 29.84F  
HARTFORD MOCLDY 72 69 90 SW3 29.83S  
ALBANY CLOUDY 72 67 84 N5 29.83S  
NEW YORK CITY MOCLDY 74 66 76 SW9 29.84S  

 
 
ANZ081-ANZ082-ANZ150-NHZ014-MEZ023>029-150500-  
COASTAL MARINE OBSERVATIONS  
 
STATION/POSITION TIME TEMP WIND PRES WAVE
 
AIR SEA DIR/SP/G HT/PER  
(UTC) (F) (DEG/KT/KT) (MB) (FT/S)  
MOUNT DESERT ROC 0400 67 150/ 10/ 11 1011.6R  
MATINICUS ROCK 0300 68 170/ 13/ 13 1010.7F  
ISLE OF SHOALS 0300 70 280/ 4/ 5 1009.8R  
JEFFREYS LEDGE 0336 67 N/A 3/ 7  

 
   
............KEY...........
 
 
WCI - WIND CHILL  
TC - TEMPERATURE IN CELSIUS  
VSB - VISIBILITY
IN MILES  
HX - HEAT INDEX  
FAIR- INDICATES FEW OR NO CLOUDS BELOW 12,000 FT, WITH NO  
SIGNIFICANT WEATHER AND/OR S TO VISIBILITY.  
 
 
 
CLICK HERE TO GO TO PREVIOUS BULLETINS.

The Nexlab ME Page
The Nexlab NH Page Main Text Page